Torna al catalogo

TIANHUI 5D

AttivoScienzaSSO
NORAD 60212·PAYLOAD·🇨🇳 China

Lanciato Jul 4, 2024 da Taiyuan Satellite Launch Center

Loading…

Prossimi Passaggi (prossime 24 ore)

TLE

AggiornatoSource: Space-Track

Epoca: Sep 14, 2026, 11:51 UTC

1 60212U 24126B   26257.49417656  .00000263  00000-0  34908-4 0  9999
2 60212  97.8213 263.7958 0002120  92.4667 267.6792 14.87579927119179

Traccia TIANHUI 5D in tempo reale con AllMySat

Download on the App Store